Madrid Cuatro Vientos, Spain

9:49 PM CEST on August 17, 2017 (GMT +0200)
Madrid Cuatro Vientos

Weather History for LEVS - July, 2013

Change the Weather History Date:

Friday, July 19, 2013

  Actual Average Record
Temperature  
Mean Temperature 84 °F -  
Max Temperature 96 °F 86 °F 100 °F (2012)
Min Temperature 71 °F 63 °F 53 °F (2001)
Cooling Degree Days 18    
Growing Degree Days 34 (Base 50)    
Moisture  
Dew Point 61 °F    
Average Humidity 44    
Maximum Humidity 69    
Minimum Humidity 30    
Precipitation  
Precipitation 0.00 in - - ()
Sea Level Pressure  
Sea Level Pressure 30.02 in    
Wind  
Wind Speed 5 mph ()    
Max Wind Speed 12 mph    
Max Gust Speed 22 mph    
Visibility 6.2 miles    
Events      
Averages and records for this station are not official NWS values.
T = Trace of Precipitation, MM = Missing Value Source: Averaged Metar Reports

Daily Weather History Graph

Daily Weather History Graph

Search for Another Location

Airport or City:

Trip Planner

Search our weather history database for the weather conditions in past years. The results will help you decide how hot, cold, wet, or windy it might be!

Date:

Astronomy

Jul. 19, 2013 Rise Set
Actual Time 7:01 AM CEST 9:41 PM CEST
Civil Twilight 6:29 AM CEST 10:13 PM CEST
Nautical Twilight 5:49 AM CEST 10:52 PM CEST
Astronomical Twilight 5:04 AM CEST 11:37 PM CEST
Moon 6:28 PM CEST (7/19) 3:29 AM CEST (7/19)
Length of Visible Light 15h 43m
Length of Day
14h 40m
Waxing Gibbous, 84% of the Moon is Illuminated
Jul 19
Waxing Gibbous
Jul 22
Full
Jul 29
Last Quarter
Aug 6
New
Aug 14
First Quarter

Hourly Weather History & Observations

Time (CEST) Temp. Heat Index Dew Point Humidity Pressure Visibility Wind Dir Wind Speed Gust Speed Precip Events Conditions
7:00 AM 71.6 °F - 60.8 °F 69% 30.06 in 6.2 mi Variable 1.2 mph - N/A   Partly Cloudy
7:30 AM 71.6 °F - 60.8 °F 69% 30.06 in - ENE 3.5 mph - N/A   Clear
8:00 AM 71.6 °F - 60.8 °F 69% 30.06 in - ENE 3.5 mph - N/A   Clear
8:30 AM 73.4 °F - 60.8 °F 65% 30.06 in - East 4.6 mph - N/A   Clear
9:00 AM 75.2 °F - 62.6 °F 65% 30.06 in - East 4.6 mph - N/A   Clear
9:30 AM 77.0 °F - 62.6 °F 61% 30.09 in - East 6.9 mph - N/A   Clear
10:00 AM 77.0 °F - 62.6 °F 61% 30.09 in - East 8.1 mph - N/A   Clear
10:30 AM 78.8 °F - 62.6 °F 57% 30.09 in - Variable 4.6 mph - N/A   Clear
11:00 AM 80.6 °F 82.3 °F 64.4 °F 58% 30.09 in - East 5.8 mph - N/A   Clear
11:30 AM 82.4 °F 83.9 °F 64.4 °F 54% 30.09 in - Variable 4.6 mph - N/A   Clear
12:00 PM 84.2 °F 85.6 °F 64.4 °F 51% 30.06 in - East 8.1 mph - N/A   Clear
12:30 PM 86.0 °F 87.3 °F 64.4 °F 48% 30.06 in - NE 4.6 mph - N/A   Clear
1:00 PM 87.8 °F 89.4 °F 64.4 °F 46% 30.06 in - East 4.6 mph - N/A   Clear
1:30 PM 89.6 °F 91.1 °F 64.4 °F 43% 30.06 in - ESE 6.9 mph - N/A   Clear
2:00 PM 91.4 °F 94.0 °F 66.2 °F 43% 30.04 in - ESE 5.8 mph - N/A   Clear
2:30 PM 93.2 °F 94.9 °F 64.4 °F 38% 30.04 in - SSE 5.8 mph - N/A   Clear
3:00 PM 93.2 °F 94.1 °F 62.6 °F 36% 30.04 in - South 11.5 mph - N/A   Clear
3:30 PM 95.0 °F 95.2 °F 60.8 °F 32% 30.01 in - SSW 10.4 mph - N/A   Clear
4:00 PM 95.0 °F 96.0 °F 62.6 °F 34% 30.01 in - SW 8.1 mph 19.6 mph N/A   Clear
4:30 PM 96.8 °F 97.1 °F 60.8 °F 30% 30.01 in - SSW 9.2 mph - N/A   Clear
5:00 PM 95.0 °F 95.2 °F 60.8 °F 32% 29.98 in - SW 9.2 mph - N/A   Clear
5:30 PM 95.0 °F 94.4 °F 59.0 °F 30% 29.98 in - Variable 6.9 mph 19.6 mph N/A   Clear
6:00 PM 95.0 °F 95.2 °F 60.8 °F 32% 29.95 in - SSW 3.5 mph - N/A   Clear
6:30 PM 95.0 °F 95.2 °F 60.8 °F 32% 29.95 in - SSW 9.2 mph - N/A   Clear
7:00 PM 95.0 °F 94.4 °F 59.0 °F 30% 29.95 in - Variable 8.1 mph 21.9 mph N/A   Clear
7:30 PM 95.0 °F 94.4 °F 59.0 °F 30% 29.95 in - Variable 3.5 mph - N/A   Clear
8:00 PM 93.2 °F 92.6 °F 59.0 °F 32% 29.95 in - SSW 5.8 mph - N/A   Clear
8:30 PM 91.4 °F 89.9 °F 57.2 °F 31% 29.95 in - West 5.8 mph - N/A   Clear
9:00 PM 89.6 °F 87.7 °F 55.4 °F 31% 29.95 in - West 8.1 mph - N/A   Clear
9:30 PM 86.0 °F 84.5 °F 55.4 °F 35% 29.95 in - WNW 4.6 mph - N/A   Clear
10:00 PM 84.2 °F 82.8 °F 53.6 °F 35% 29.95 in - WNW 3.5 mph - N/A   Clear